Date,TemperatureHighF,TemperatureAvgF,TemperatureLowF,DewpointHighF,DewpointAvgF,DewpointLowF,HumidityHigh,HumidityAvg,HumidityLow,PressureMaxIn,PressureMinIn,WindSpeedMaxMPH,WindSpeedAvgMPH,GustSpeedMaxMPH,PrecipitationSumIn
2013-10-1,90.5,69.0,62.2,66.6,38.6,30.6,89,34,19,29.95,29.65,16,5,30,0.04
2013-10-2,80.2,62.9,49.6,55.8,39.6,21.9,95,48,12,30.09,29.80,15,3,21,0.00
2013-10-3,74.3,62.5,53.4,52.6,36.6,25.8,84,39,19,30.18,29.77,8,4,18,0.12
2013-10-4,73.0,59.8,50.2,53.8,39.6,30.5,98,51,23,30.27,30.15,10,4,20,0.00
2013-10-5,89.2,63.4,47.5,62.6,44.8,24.2,98,65,10,30.21,29.89,9,3,15,0.00
2013-10-6,96.6,66.4,52.2,57.4,42.0,22.6,98,56,9,29.98,29.62,10,3,17,0.00
2013-10-7,75.0,70.1,32.0,47.9,43.0,34.0,45,37,32,29.92,0.00,12,8,24,0.00
2013-10-8,79.5,65.6,56.5,61.5,50.7,36.2,98,65,24,30.18,29.95,10,3,24,0.00
2013-10-9,90.3,67.8,48.7,59.5,42.4,22.3,98,56,10,30.18,29.92,8,3,13,0.00
2013-10-10,92.8,74.7,61.7,39.8,31.7,23.6,37,22,9,29.98,29.62,15,6,24,0.00
2013-10-11,83.1,69.8,62.4,63.6,51.7,28.5,93,57,14,30.07,29.62,11,6,22,0.00
2013-10-12,91.2,63.4,54.0,68.5,55.3,30.5,98,81,15,30.09,29.77,7,1,15,0.00
2013-10-13,97.0,90.4,32.0,58.1,35.3,24.9,22,14,8,29.65,0.00,23,17,40,0.00
2013-10-14,72.0,63.6,57.6,64.2,42.2,28.5,98,51,23,30.15,29.71,10,5,21,0.29
2013-10-15,83.1,63.9,45.9,50.9,32.5,20.4,97,41,11,30.30,30.09,8,3,14,0.00
2013-10-16,87.3,66.9,47.3,56.0,35.3,21.9,98,44,11,30.21,29.92,11,4,17,0.00
2013-10-17,89.2,86.6,84.9,41.6,39.8,38.2,21,19,18,29.77,29.71,20,16,32,0.00
2013-10-18,72.5,66.1,56.7,45.8,35.9,23.4,67,33,24,30.42,30.24,8,5,14,0.00
2013-10-19,78.1,60.1,48.4,61.5,48.3,31.4,98,74,20,30.45,30.24,9,2,17,0.00
2013-10-20,92.3,71.8,56.5,68.1,55.3,41.1,98,63,18,30.30,30.01,10,3,16,0.00
2013-10-21,101.5,77.7,59.2,70.4,50.9,25.2,98,57,7,30.09,29.86,8,3,15,0.00
2013-10-22,85.8,72.5,66.6,70.1,60.8,47.9,98,70,36,30.03,29.89,7,3,16,0.00
2013-10-23,97.3,90.3,69.8,56.7,40.8,22.6,59,21,8,29.86,29.59,18,9,27,0.00
2013-10-24,71.4,61.9,58.1,62.2,57.5,42.3,96,86,39,29.92,29.86,3,1,6,0.00
2013-10-25,81.1,64.5,50.0,47.9,28.1,18.3,55,28,12,30.27,30.12,8,3,15,0.00
2013-10-26,77.4,59.4,51.4,55.4,46.4,19.5,98,70,13,30.24,30.12,10,2,27,0.00
2013-10-27,81.7,63.3,54.9,65.7,54.1,35.5,98,77,22,30.27,30.15,9,2,17,0.00
2013-10-28,84.9,70.6,60.3,67.3,54.9,44.3,98,65,26,30.24,29.92,8,3,14,0.00
2013-10-29,91.8,68.7,59.4,65.7,55.5,41.6,98,69,19,30.07,29.71,13,4,30,1.58
2013-10-30,73.0,64.8,32.0,58.8,50.0,38.0,98,64,29,30.21,30.03,9,5,19,0.00
2013-10-31,77.9,64.6,51.4,64.3,49.8,42.2,98,66,30,30.24,30.09,9,3,17,0.00